星链-31150 (STARLINK-31150 )

导读 | 星芒AI

STARLINK-31150 是 SpaceX Starlink 项目中的一颗低轨通信卫星,属于该星座的众多组网卫星之一。该卫星旨在为全球用户提供高速互联网接入服务,尤其关注偏远和网络覆盖不足的地区。它运行在约 550 公里的轨道高度,采用先进的推进和通信技术,支持高带宽、低延迟的数据传输。作为 Starlink 计划的一部分,STARLINK-31150 有助于构建一个全球性的卫星互联网网络,提升全球通信能力。

基本信息
目录编号:
58730
目录名称:
STARLINK-31150
国际标识:
2024-005C
轨道中心:
EARTH
卫星名称:
星链-31150
卫星全名:
星链-31150 (STARLINK-31150 )
卫星状态:
已陨落 最后检测时间 2025-06-21
发射日期:
2024-01-07 UTC
国别 :
美国 (US)
星等 :
--
轨道信息
数据来源 国际轨道数据
星历时间: 2025-06-21T05:49:53+0800
轨道信息已过期181天
半长轴: 6554.093km
偏心率: 0.0012405
轨道倾角: 42.976°
近地点辐角 282.284°
升交点赤经 7.551°
平近点角 179.302°
近地点: 167.827km
远地点: 184.089km
周期: 88.009分钟
每日圈数: 16.361907
详细信息
固有亮度:
5
最大亮度:
0.3
卫星平台:
Starlink v2.0 mini
覆盖范围:
全球
运营商:
太空探索技术公司
运营商所在国:
美国
制造商(研发单位):
太空探索技术公司
制造商所在国:
美国
使用方式:
暂无
卫星简介
星链(Starlink)计划是由太空探索技术公司(SpaceX)提出的一个巨型低轨卫星互联网星座项目,计划在2019年至2024年间在太空搭建由约1.2万颗卫星组成的“星链”网络,其中1584颗将部署在地球上空550千米处的近地轨道,并从2020年开始工作。该卫星仍在工作。